Wind_Speed
25 24 23 22 20 20 21 19 19 19 19 21 22 20 19 18 15 15 16 16 15 15 15 15 15 15 15 14 14 14 15 15 16 16 17 18 18 18 17 17 17 17
26 25 23 21 19 19 20 21 20 20 19 20 21 20 19 18 16 15 15 14 14 14 14 15 15 15 14 14 15 16 17 17 17 18 18 18 18 18 18 18 19 19
26 27 23 20 19 18 19 21 21 21 22 22 22 22 21 19 17 17 17 16 16 16 16 17 16 15 14 16 18 19 19 19 19 19 19 19 19 19 19 20 20 19
26 26 23 19 18 19 20 21 21 22 24 24 24 24 23 21 20 20 20 20 20 20 20 20 18 17 17 19 20 21 21 20 20 19 18 18 19 19 20 20 19 19
24 24 21 18 18 21 22 22 22 22 23 23 24 25 24 23 22 22 22 21 22 22 23 22 21 20 20 21 22 21 20 20 19 19 18 18 18 18 19 19 19 19
23 23 21 19 19 23 24 24 23 22 21 21 23 25 26 25 24 23 22 23 24 24 24 23 22 21 22 22 21 21 20 19 19 18 17 17 17 18 18 19 19 19
24 24 22 20 22 25 26 24 23 23 22 21 22 25 27 26 25 24 24 24 25 25 24 23 22 21 22 22 21 21 20 19 18 18 18 18 18 18 18 19 19 19
23 25 23 23 25 27 26 25 24 24 24 22 23 26 28 27 26 26 25 25 25 25 24 23 22 22 22 22 21 21 20 19 19 19 19 19 18 19 19 20 20 19
20 23 23 23 25 26 26 26 25 25 25 23 23 26 29 29 28 26 25 25 25 25 24 23 22 22 22 22 22 21 21 20 20 20 20 20 20 20 21 20 20 20
18 22 22 22 24 27 27 26 25 24 24 22 23 27 29 28 27 25 25 25 25 24 24 23 22 21 22 22 22 21 21 21 21 20 20 21 21 22 21 21 20 19
14 19 21 23 25 26 26 25 24 24 22 22 23 26 27 26 26 26 27 27 25 24 24 24 22 22 22 22 22 22 22 22 21 21 21 22 23 23 22 22 21 20
10 14 18 22 24 23 24 24 24 23 22 22 24 26 26 25 26 28 29 27 24 22 23 24 22 22 22 23 23 23 22 22 22 22 22 23 23 23 22 22 21 21
9 11 14 18 20 20 21 22 23 23 22 22 24 26 26 26 27 28 29 26 22 21 22 23 23 23 24 24 24 23 23 23 23 22 23 23 24 23 22 21 20 20
10 11 13 15 17 18 20 22 23 24 23 23 24 26 27 27 28 28 29 26 23 22 22 23 24 25 26 25 24 23 23 23 23 23 23 24 24 23 22 21 19 20
10 12 14 15 16 17 18 19 21 22 23 24 25 27 28 28 28 28 28 27 25 23 23 25 26 27 26 26 24 23 24 24 24 24 24 24 24 22 21 21 20 21
10 12 14 16 17 17 17 17 17 20 23 23 24 27 29 29 29 28 27 27 26 24 24 26 27 27 27 25 24 24 24 24 24 25 24 24 23 22 21 21 21 22
11 12 13 15 16 17 17 17 16 18 21 22 23 25 27 30 30 29 27 26 25 24 25 26 27 28 27 26 24 24 24 23 24 24 23 22 22 22 22 22 22 22
11 11 12 13 15 18 18 17 16 17 19 21 23 25 26 29 31 29 26 25 24 24 25 26 27 28 28 26 25 25 24 23 23 23 22 22 22 22 22 22 23 23
10 9 9 9 12 16 19 18 17 17 17 20 23 24 23 27 31 31 28 26 24 24 25 26 27 28 28 26 26 26 25 23 23 23 23 23 24 24 24 24 24 25
9 8 8 7 7 10 14 18 19 20 19 20 22 23 23 27 30 31 29 27 25 25 26 27 27 27 27 27 27 27 26 24 23 23 24 25 26 26 26 26 26 26
9 8 8 7 5 4 7 12 15 18 20 21 22 23 24 27 29 29 28 26 26 26 26 27 27 27 27 27 27 27 27 26 24 24 25 26 27 28 28 28 28 28
9 8 8 9 7 5 8 12 13 16 19 20 21 22 24 26 28 29 27 26 26 27 27 27 28 28 28 28 28 28 28 27 25 25 26 27 28 29 29 29 29 28
10 9 8 9 9 9 12 15 14 15 19 22 21 21 23 28 29 29 28 26 26 27 27 27 29 29 29 29 29 30 29 27 26 25 25 26 27 28 27 27 28 27
14 13 12 11 11 12 15 15 14 14 16 19 22 23 25 28 30 30 30 27 26 28 29 29 30 31 30 29 30 29 28 27 26 26 26 26 27 28 28 28 29 29
17 17 16 15 14 15 15 16 16 15 14 16 20 24 27 30 30 31 32 32 30 29 29 31 32 31 30 29 28 28 28 28 27 26 26 27 29 30 30 31 32 33
18 18 18 17 17 17 17 17 17 17 16 16 16 17 22 28 29 29 30 32 32 31 31 32 32 30 30 30 29 28 28 29 28 28 28 30 31 30 30 31 31 34
Wind_Direction
268 270 268 263 261 262 259 254 253 253 254 251 247 244 241 238 237 243 245 241 238 231 218 207 204 209 219 221 223 229 234 238 242 245 247 248 250 253 254 253 253 253
261 261 258 253 252 256 252 246 246 246 245 244 242 240 236 232 231 236 236 231 225 219 213 210 210 212 217 222 227 232 236 239 242 245 248 251 254 257 257 257 256 257
260 256 249 245 246 251 247 240 241 241 238 239 238 235 231 225 225 227 225 222 221 221 222 224 223 220 221 227 229 231 234 238 241 243 246 250 254 256 256 257 258 260
259 251 243 240 243 246 242 237 238 237 236 237 235 232 227 222 223 224 221 221 221 222 224 227 229 226 225 230 230 230 233 237 239 241 244 247 250 254 256 257 260 261
249 242 238 240 241 241 239 235 234 234 234 235 233 229 225 221 223 224 223 222 220 222 224 226 228 228 227 229 231 230 232 235 237 239 242 245 248 251 255 257 259 260
234 229 232 240 242 238 236 232 229 227 228 233 234 231 227 223 222 222 223 224 223 224 227 229 231 231 229 230 231 231 232 234 236 239 242 245 247 250 254 257 259 260
223 221 225 234 238 233 229 226 223 221 224 232 236 233 230 226 221 219 221 226 229 229 231 232 232 231 230 231 231 232 234 235 238 240 242 244 247 250 254 257 259 260
220 219 221 225 228 227 225 225 224 222 225 232 232 231 231 227 222 221 221 225 232 234 234 233 231 231 231 233 233 234 237 239 241 243 244 246 248 250 253 256 258 259
229 227 227 226 224 225 228 230 228 227 230 235 231 226 228 226 223 224 226 227 231 234 235 233 231 231 233 235 237 239 240 241 242 245 247 250 251 252 254 255 257 258
238 237 236 232 228 229 233 235 234 233 236 240 233 224 223 224 223 225 228 228 228 231 235 236 234 233 236 239 242 243 244 244 245 247 250 252 254 255 255 256 257 257
239 235 233 232 231 231 234 235 234 234 235 236 232 223 222 224 224 225 227 225 224 228 235 239 237 236 238 242 243 244 244 245 246 248 251 253 254 255 256 256 256 254
240 228 224 225 228 230 233 233 230 228 228 228 226 221 222 226 228 227 225 223 225 231 237 240 240 241 242 242 241 240 241 242 244 247 250 253 254 255 255 255 254 253
244 232 225 223 226 231 235 235 231 229 230 228 224 221 222 228 232 228 221 222 232 239 239 240 241 243 244 242 239 239 239 240 243 246 250 253 254 254 255 255 254 256
252 240 234 229 229 232 235 236 235 235 234 232 227 222 223 228 230 224 219 225 239 243 238 238 241 243 242 240 238 238 240 242 245 249 252 253 253 254 254 255 255 256
268 251 243 237 235 236 238 237 236 234 233 232 229 223 224 228 225 219 223 233 242 239 234 236 241 243 241 238 238 239 242 245 248 250 252 252 253 253 255 257 258 257
275 262 252 244 240 241 240 236 233 231 230 231 228 224 226 229 224 220 229 237 237 233 233 238 243 245 243 240 240 243 246 248 248 249 251 252 253 254 256 259 259 260
274 270 261 253 244 240 238 235 232 231 228 227 227 228 229 227 223 224 231 234 233 233 236 242 246 248 247 244 243 246 248 250 250 250 251 251 253 255 257 258 258 259
272 271 266 259 249 239 237 236 233 230 228 226 228 232 234 228 224 225 227 229 235 240 243 247 248 248 249 247 245 247 248 250 252 253 253 254 256 256 255 255 257 259
271 275 275 272 258 243 237 235 233 230 230 233 232 232 233 229 224 224 226 231 241 246 248 250 249 247 248 248 248 250 251 251 253 254 255 256 256 255 255 256 259 261
279 283 286 289 281 257 241 236 235 233 233 238 238 235 236 235 227 223 227 234 242 247 248 250 249 246 247 249 250 252 254 255 255 254 254 253 253 253 253 256 259 262
282 280 279 278 279 279 263 249 239 236 237 240 239 236 241 244 235 226 226 231 237 244 247 248 248 246 245 247 249 252 255 257 256 254 251 250 250 251 252 255 259 261
279 274 274 272 262 253 269 269 253 239 240 244 242 237 243 249 241 231 229 231 234 241 245 247 249 248 245 245 248 251 254 257 257 254 252 251 252 253 255 257 260 261
277 275 276 275 263 245 256 271 267 247 240 241 239 236 240 247 245 237 234 235 238 242 245 247 249 248 246 246 247 249 253 256 254 251 250 251 252 253 255 259 262 263
273 277 278 276 267 254 253 264 270 262 252 246 240 237 241 247 247 241 237 238 242 245 246 248 248 247 245 245 246 248 251 252 252 252 251 250 249 248 247 251 256 258
270 274 276 275 272 267 261 263 264 264 268 266 252 242 240 243 244 242 238 237 241 246 248 250 249 247 245 245 245 247 248 248 248 249 249 248 247 248 248 249 251 253
270 271 273 273 274 275 272 271 270 266 267 273 269 255 245 241 239 239 237 237 241 244 246 250 254 254 253 252 249 245 245 246 245 245 248 251 253 256 258 258 259 258
Height
5760 5760 5761 5762 5762 5762 5764 5766 5766 5767 5768 5768 5769 5770 5771 5771 5771 5772 5773 5774 5775 5776 5778 5780 5781 5783 5784 5784 5785 5786 5787 5788 5790 5791 5792 5792 5793 5794 5795 5795 5796 5797
5755 5756 5757 5758 5758 5759 5760 5762 5764 5765 5766 5767 5768 5769 5769 5769 5769 5770 5771 5772 5773 5775 5776 5778 5780 5781 5782 5783 5784 5785 5786 5787 5788 5789 5790 5790 5791 5791 5792 5793 5794 5795
5752 5752 5754 5755 5755 5756 5757 5759 5760 5761 5763 5764 5766 5767 5766 5766 5766 5768 5769 5771 5772 5773 5775 5776 5778 5779 5781 5782 5783 5783 5784 5785 5786 5787 5788 5788 5788 5789 5790 5790 5791 5792
5748 5749 5751 5752 5753 5754 5755 5756 5757 5758 5759 5760 5762 5764 5764 5764 5764 5766 5767 5769 5770 5772 5773 5775 5776 5778 5780 5781 5781 5782 5783 5784 5784 5785 5785 5786 5786 5787 5787 5788 5789 5790
5744 5746 5747 5748 5749 5751 5751 5752 5753 5754 5755 5757 5759 5761 5761 5762 5763 5765 5766 5767 5768 5770 5771 5772 5774 5776 5777 5778 5779 5780 5781 5782 5782 5783 5783 5784 5784 5785 5785 5786 5787 5787
5741 5742 5743 5746 5747 5747 5747 5748 5750 5751 5752 5754 5756 5757 5758 5759 5760 5763 5765 5765 5766 5767 5768 5770 5772 5774 5775 5776 5777 5778 5778 5779 5779 5780 5781 5781 5782 5782 5783 5784 5785 5785
5737 5738 5740 5743 5745 5744 5743 5744 5746 5748 5749 5751 5753 5754 5755 5756 5758 5759 5761 5763 5764 5765 5766 5768 5770 5771 5772 5773 5774 5775 5775 5776 5777 5777 5778 5778 5779 5780 5781 5782 5782 5783
5733 5735 5736 5738 5740 5740 5741 5742 5743 5745 5746 5748 5750 5751 5752 5753 5755 5756 5758 5760 5762 5764 5765 5766 5768 5769 5770 5771 5771 5772 5773 5773 5774 5775 5775 5776 5777 5778 5778 5779 5780 5781
5731 5733 5734 5735 5737 5738 5739 5740 5742 5743 5744 5746 5747 5749 5749 5751 5753 5755 5757 5759 5761 5762 5763 5765 5766 5767 5767 5768 5769 5770 5771 5771 5772 5772 5773 5774 5775 5775 5776 5777 5778 5779
5729 5731 5732 5734 5735 5736 5737 5739 5741 5742 5744 5745 5746 5747 5748 5749 5751 5753 5755 5757 5758 5760 5761 5763 5764 5765 5765 5766 5766 5767 5768 5769 5770 5771 5771 5772 5773 5774 5774 5775 5776 5777
5727 5728 5730 5731 5733 5734 5735 5737 5739 5741 5742 5743 5744 5745 5747 5748 5750 5751 5753 5755 5756 5758 5759 5760 5762 5763 5763 5764 5765 5765 5766 5767 5768 5769 5770 5770 5771 5771 5772 5773 5773 5774
5726 5726 5727 5729 5730 5732 5733 5734 5736 5738 5740 5740 5741 5743 5745 5747 5748 5749 5751 5753 5755 5756 5757 5758 5759 5760 5761 5762 5763 5763 5764 5765 5766 5766 5767 5768 5768 5769 5769 5770 5770 5771
5725 5726 5727 5728 5729 5731 5732 5733 5735 5737 5737 5738 5738 5740 5743 5744 5745 5747 5749 5751 5753 5754 5755 5756 5757 5758 5758 5759 5760 5760 5761 5762 5763 5764 5764 5765 5765 5766 5767 5767 5768 5769
5725 5726 5727 5728 5728 5729 5730 5731 5733 5734 5735 5736 5737 5738 5739 5741 5743 5745 5747 5749 5750 5751 5752 5753 5754 5755 5755 5755 5756 5757 5757 5758 5760 5761 5761 5762 5763 5764 5764 5765 5766 5766
5725 5725 5726 5727 5727 5728 5728 5729 5730 5732 5733 5734 5735 5736 5737 5738 5740 5743 5746 5747 5748 5748 5749 5750 5751 5752 5752 5752 5753 5753 5754 5755 5756 5757 5758 5759 5760 5761 5762 5763 5763 5763
5724 5724 5724 5725 5725 5726 5726 5727 5728 5729 5730 5731 5732 5733 5735 5736 5739 5741 5743 5744 5745 5746 5747 5748 5748 5749 5749 5749 5750 5750 5751 5752 5753 5754 5756 5756 5757 5758 5759 5760 5760 5760
5723 5723 5722 5723 5723 5723 5724 5725 5726 5726 5727 5728 5730 5731 5733 5734 5737 5739 5740 5742 5742 5743 5744 5745 5746 5746 5746 5747 5747 5748 5749 5750 5751 5752 5753 5754 5755 5756 5756 5756 5757 5757
5722 5721 5721 5721 5721 5720 5721 5723 5724 5725 5725 5726 5727 5729 5730 5732 5734 5736 5737 5738 5739 5740 5741 5742 5743 5743 5743 5744 5744 5745 5746 5747 5748 5750 5751 5752 5752 5753 5753 5753 5754 5754
5720 5720 5719 5719 5718 5717 5719 5720 5722 5723 5724 5724 5725 5726 5727 5729 5731 5732 5734 5735 5736 5737 5738 5739 5740 5740 5740 5741 5741 5742 5743 5745 5746 5747 5748 5749 5749 5749 5750 5750 5751 5751
5719 5718 5718 5717 5716 5716 5717 5718 5719 5720 5722 5722 5723 5724 5724 5725 5726 5728 5730 5732 5733 5734 5735 5736 5737 5738 5738 5738 5739 5740 5741 5743 5743 5744 5744 5745 5745 5746 5746 5747 5748 5748
5717 5717 5716 5716 5716 5716 5716 5717 5717 5718 5719 5720 5720 5721 5721 5722 5723 5725 5726 5727 5729 5730 5732 5733 5733 5734 5734 5735 5736 5737 5739 5740 5740 5740 5741 5741 5742 5742 5743 5744 5745 5745
5716 5716 5715 5715 5715 5715 5716 5716 5716 5716 5717 5717 5717 5718 5718 5719 5720 5722 5722 5724 5725 5727 5728 5729 5730 5730 5731 5732 5733 5734 5735 5736 5737 5737 5737 5737 5738 5739 5740 5741 5741 5741
5715 5715 5715 5714 5714 5714 5714 5714 5714 5714 5714 5714 5714 5715 5716 5716 5717 5718 5719 5721 5722 5723 5725 5726 5726 5726 5727 5728 5729 5731 5732 5733 5734 5734 5734 5734 5734 5735 5736 5737 5737 5737
5714 5714 5713 5713 5713 5713 5712 5711 5711 5711 5711 5712 5712 5713 5713 5713 5714 5716 5717 5718 5719 5720 5721 5722 5722 5722 5723 5725 5726 5727 5729 5730 5730 5730 5731 5731 5731 5731 5732 5732 5732 5732
5712 5712 5712 5711 5711 5711 5710 5710 5709 5709 5709 5709 5709 5709 5709 5709 5710 5712 5714 5714 5715 5716 5717 5718 5718 5719 5720 5721 5722 5724 5725 5726 5727 5728 5728 5728 5727 5728 5728 5728 5728 5728
5710 5710 5710 5710 5709 5709 5708 5708 5707 5707 5706 5706 5706 5707 5707 5707 5707 5708 5709 5710 5711 5713 5714 5714 5714 5716 5717 5718 5719 5720 5721 5721 5722 5723 5723 5723 5723 5724 5724 5724 5725 5725